Location: Gleizolles
(44.4833°N, 6.7667°E)
Time: 01:10:51
(UTC+00:00)

S-56A Canister/Altair - Pass Details

Date: 01 July 2024
Orbit: 638 x 2488 km, 38.9° (Epoch: 24 July)

Event Time Altitude Azimuth Distance (km) Brightness Sun altitude
Rises 20:25:28 0° 266° (W) 3,779 11.7 -9.6°
Reaches altitude 10° 20:27:46 10° 262° (W) 3,019 11.1 -9.9°
Maximum altitude 20:35:14 61° 184° (S) 1,674 9.0 -10.8°
Drops below altitude 10° 20:46:33 10° 109° (ESE) 4,473 10.9 -12.1°
Enters shadow 20:48:33 - 107° (ESE) 5,069 11.2 -12.3°
Sets 20:50:44 0° 106° (ESE) 5,710 - -12.5°
